Regional Weather Roundup
Issued by NWS Wakefield, VA

Home | Current Version | Previous Version | Graphics & Text | Print | Product List | Glossary On
Versions: 1 2 3 4 5 6 7 8 9 10 11 12 13 14 15 16 17 18 19 20 21 22 23 24 25 26 27 28 29 30 31 32 33 34 35 36 37 38 39 40 41 42 43 44 45 46 47 48 49 50
000
ASUS41 KAKQ 190014
RWRAKQ

REGIONAL WEATHER ROUNDUP
NATIONAL WEATHER SERVICE WAKEFIELD VA
800 PM EDT SAT APR 18 2015

Note: "fair" indicates few or no clouds below 12,000 feet with no
significant weather and/or obstructions to visibility. * = Denotes
station may not report precipitation (e.g., rain,snow,etc.),
thunder or fog.

VAZ042-051-052>054-056-190100-
NORTHERN VIRGINIA

CITY           SKY/WX    TMP DP  RH WIND       PRES   REMARKS
WASH NATIONAL  CLOUDY    76  47  35 CALM      29.96R
DULLES         CLOUDY    68  48  48 CALM      29.97R
FORT BELVOIR   CLOUDY    70  50  48 SE1       29.96R
QUANTICO       MOCLDY    73  50  44 CALM      29.97R
FREDERICKSBRG* MOCLDY    75  48  38 CALM      29.96R
STAFFORD*      MOCLDY    69  46  43 CALM      30.01R
WARRENTON      MOCLDY    67  53  60 CALM      29.97R
CULPEPER*      MOCLDY    72  59  64 CALM      29.98R
MANASSAS*      CLEAR     73  48  40 CALM      29.96R
LEESBURG*      CLOUDY    73  46  38 SW10      29.98R
WINCHESTER     CLOUDY    70  41  35 CALM      29.97R
FRONT ROYAL*   FAIR      72  43  35 CALM      29.96R
LURAY*         FAIR      70  52  52 CALM      29.98S
$$

VAZ048-049-060>072-079>083-190100-
CENTRAL AND SOUTH CENTRAL VIRGINIA

CITY           SKY/WX    TMP DP  RH WIND       PRES   REMARKS
RICHMOND       MOCLDY    72  51  47 SE9       29.97R
CHESTERFIELD*  NOT AVBL
PETERSBURG*    PTCLDY    70  54  55 CALM      29.98R
HANOVER        MOCLDY    68  55  63 CALM      29.98R
TAPPAHANNOCK*  MOCLDY    71  47  43 E3        29.98R
QUINTON*       FAIR      73  51  47 SE5       29.97R
CHARLOTTSVILLE PTCLDY    72  48  42 NE3       29.98R
GORDONSVILLE*  FAIR      68  52  57 NE3       29.98R
ORANGE*        MOCLDY    70  54  56 CALM      30.00R
LOUISA*        MOCLDY    64  57  77 CALM      29.97R
BUMPASS*       FAIR      70  51  50 CALM      29.98R
FARMVILLE*     CLEAR     74  50  42 CALM      29.96S
CREWE*         FAIR      71  53  52 CALM      29.97R
FORT PICKETT*  FAIR      72  54  52 NE5       29.98R
CHASE CITY*    FAIR      73  61  68 CALM      29.96S
CLARKSVILLE*   FAIR      70  61  73 S3        29.95S
SOUTH HILL*    PTCLDY    71  57  61 NE3       30.02R
LAWRENCEVILLE* FAIR      73  56  56 N3        29.96R
EMPORIA*       PTCLDY    72  61  68 E5        29.99R
$$

VAZ088>098-190100-
SOUTHEAST VIRGINIA

CITY           SKY/WX    TMP DP  RH WIND       PRES   REMARKS
NORFOLK        MOCLDY    64  59  83 S6        29.98S
VIRGINIA BEACH MOCLDY    61  56  83 SE7       29.98S
NORFOLK NAVAL  MOCLDY    67  59  75 SE5       29.99S
WEST POINT*    MOCLDY    70  49  46 E6        29.99R
SALUDA*        FAIR      65  53  65 CALM      29.98R
NEWPORT NEWS   MOCLDY    68  57  68 SE3       29.98R
LANGLEY AFB    MOCLDY    62  59  88 SE6       29.97S
FORT EUSTIS    MOCLDY    67  60  79 S5        29.96R
WILLIAMSBURG*  MOCLDY    70  61  73 CALM      29.99R
HR EXEC AP*    FAIR      70  61  73 SE8       29.99R
FRANKLIN*      PTCLDY   N/A N/A N/A CALM      29.99R
WAKEFIELD      PTCLDY    70  54  56 CALM      29.98R
$$

VAZ020-022-025-037-045-190100-
WEST CENTRAL AND SOUTHWEST VIRGINIA

CITY           SKY/WX    TMP DP  RH WIND       PRES   REMARKS
STAUNTON*      MOCLDY    74  44  33 N3        30.01R
WAYNESBORO*    FAIR      66  49  54 CALM      30.01R
HOT SPRINGS VA PTCLDY    64  45  49 E7        30.07R
LYNCHBURG      CLEAR     70  52  52 E5        29.99R
DANVILLE       MOCLDY    75  60  59 CALM      29.95S
SOUTH BOSTON*  FAIR      74  54  50 CALM      29.95S
MARTINSVILLE   MOCLDY    73  59  61 CALM      29.98R
ROANOKE        MOCLDY    74  50  42 SE8       29.98R
BLACKSBURG     MOCLDY    71  50  47 E7        30.02R
DUBLIN*        MOCLDY    71  54  55 SE3       30.00S
MARION*        MOCLDY    70  52  51 E3        30.02S
HILLSVILLE*    MOCLDY    67  57  71 SE5       30.02R
RICHLANDS*     MOCLDY    69  49  49 S6        29.98F
WISE*          MOCLDY    70  50  49 S5        29.99S
ABINGDON*      CLOUDY    70  55  60 SW3       29.98F
$$

MDZ021>025-VAZ099-100-190100-
SOUTHERN MARYLAND AND THE DELMARVA PENINSULA

CITY           SKY/WX    TMP DP  RH WIND       PRES   REMARKS
PATUXENT RIVER CLOUDY    64  51  62 SE3       29.96F
BAY BRIDGE APT   N/A     70  48  46 SE3       29.96S
LEONARDTOWN    CLOUDY    68  45  42 CALM      29.99R
DOVER          MOCLDY    66  55  67 SE6       29.92F
GEORGETOWN     MOCLDY    65  54  67 SE12      29.98S
EASTON         CLEAR     73  48  40 CALM      30.00F
CAMBRIDGE      NOT AVBL
SALISBURY      MOCLDY    65  49  56 SE7       29.98S
OCEAN CITY     PTCLDY    60  52  74 S5        30.00R
WALLOPS ISLAND MOCLDY    60  57  89 SE8       29.99F
ACCOMACK*      CLOUDY    61  54  77 SE3       29.98F
$$

NCZ012>017-030>032-190100-
NORTH CENTRAL AND EASTERN NORTH CAROLINA

CITY           SKY/WX    TMP DP  RH WIND       PRES   REMARKS
ROANOKE RAPIDS FAIR      70  61  73 E5        29.96R
RALEIGH        CLOUDY    69  63  81 S5        29.95F
ELIZABETH CITY MOCLDY    64  59  83 E7        29.99R
AHOSKIE*       PTCLDY    68  62  83 SE5       29.98R
EDENTON*       MOCLDY    67  62  86 E5        29.98R
CURRITUCK*     MOCLDY    63  59  89 E5        29.99S
KILL DEVIL HLS MOCLDY    57  55  92 NE5       29.98R
MANTEO         MOCLDY    60  58  94 NE5       29.99R
CAPE HATTERAS  PTCLDY    64  61  90 CALM      29.97R
TARBORO*       CLOUDY    70  64  81 SE9       29.98R
GOLDSBORO      CLOUDY    73  65  76 S1        29.94R
WASHINGTON     LGT RAIN  66  64  94 SE5       29.99R
GREENVILLE     RAIN      64  64 100 S3        30.01R
NEW BERN       PTCLDY    69  64  84 CALM      29.98R
WILMINGTON     MOCLDY    68  63  84 CALM      29.95S
$$

VAZ048-190100-
ELSEWHERE

CITY           SKY/WX    TMP DP  RH WIND       PRES   REMARKS
HARRISBURG PA  CLOUDY    71  39  31 CALM      29.93S
BALTIMORE      CLOUDY    71  46  40 S6        29.95S
ANNAPOLIS      CLOUDY    66  50  56 CALM      29.96S
ANDREWS AFB    CLOUDY    68  49  51 SE5       29.96R
PHILADELPHIA   MOCLDY    73  42  32 SW13      29.93S
HENDERSON NC   MOCLDY    70  60  69 CALM      29.96S
GREENSBORO     CLOUDY    71  60  68 SE3       29.95S
ROCKY MOUNT    MOCLDY    71  65  81 CALM      29.95R
$$

VAZ100-190100-
MARINE

STATION/POSITION TIME  TEMP    WIND        PRES    WAVE   SWELL
                       AIR SEA DIR/SP/G            HT/PER HT/PER
                 (UTC) (F)     (DEG/KT/KT) (MB)    (FT/S) (FT/S)
CAPE MAY NJ      2300   63 57  160/  8/  9 1014.4F
LEWES DE         2300   67 53  180/  5/  6 1014.9R
15NM E FENWICK I 2350   55 53              1015.1R   3/11
OCEAN-CITY-INLET 2312   58 51  220/  5/  6 1015.4
WACHAPREAGUE VA  2300   62 66   70/  3/  4 1015.5F
THOMAS POINT MD  0000   66 58  190/  8/  8 1015.2R
GOOSES REEF MD   0000   66 62  120/  4/  4   N/A     0
COVE POINT MD    2300   70     100/  3/  3 1014.7F
SOLOMONS ISLAND  2300      57                N/A
BISHOPS HEAD MD  2300   66 70  290/  3/  5 1014.8R
PINEY POINT MD   2342          160/  4/  6   N/A
CAMBRIDGE MD     2300   72 58   CALM  /  1 1014.6F
LEWISETTA VA     2300   66 61              1014.1F
RAPPAHANNOCK LGT 2300          140/  2/  2 1015.6F
STINGRAY PT      0000   61 59  140/  4/  4 1017.4F   0
YORK RVR RNG VA  2300   59     150/  9/ 10 1014.3F
YORKTOWN VA      2300   65 60  120/  9/ 10 1014.3F
DOMINION TERM VA 2300   59      70/ 11/ 14 1015.1S
KIPTOPEKE VA     2300      62  140/  6/  7   N/A
CHES BAY BRIDGE  2300   54 55   80/  8/  9 1015.1S
CAPE HENRY VA    2300   54     100/  5/  6 1014.1F
CHESAPEAKE LGHT  2300   52      90/ 10/ 10 1016.1F
WILLOUBY STN VA  2300   56      90/ 11/ 12 1015.6F
S CRANEY ISL VA  2300           60/  8/  9 1014.8S
CAPE HENRY BUOY  2328      54                N/A     3/ 7   2/11
1ST LANDING BUOY 0000   54     130/  8/  8 1014.7F   2/ 5
OFFSHORE WE BUOY 2311      51                N/A     3/ 7   3/ 7
64NM E OF VA BCH 2350   57 55   CALM  /  2 1014.9S   4/ 8   3/ 8
DUCK PIER NC     2300   57 57   60/  4/  7 1014.5R
44056 DUCK FRF   2311      56                N/A     3/ 7   2/11
OREGON INLET NC  2300   59 65   10/  7/ 11 1015.0R
HATTERAS NC      2300   69 69   90/  4/  5 1014.1R
DIAMOND SHLS NC  2350   71 76   20/  8/ 10 1014.5R   4/ 8   5/ 8
CAPE LOOKOUT NC  0000   67     330/  3/  3 1014.6R
$$



USA.gov is the U.S. government's official web portal to all federal, state and local government web resources and services.